Weather History for Whitehorse, YT

Change the Weather History Date:

Saturday, April 26, 2014

  Actual Average Record
Temperature  
Mean Temperature 38 °F -  
Max Temperature 51 °F 53 °F 69 °F (2003)
Min Temperature 26 °F 32 °F 19 °F (2002)
Degree Days  
Heating Degree Days 26    
Moisture  
Dew Point 18 °F    
Average Humidity 43    
Maximum Humidity 69    
Minimum Humidity 13    
Precipitation  
Precipitation 0.00 in 0.02 in - ()
Sea Level Pressure  
Sea Level Pressure 29.62 in    
Wind  
Wind Speed 8 mph ()    
Max Wind Speed 14 mph    
Max Gust Speed 21 mph    
Averages and records for this station are not official NWS values.
T = Trace of Precipitation, MM = Missing Value Source: Averaged Metar Reports

Daily Weather History Graph

Daily Weather History Graph

Search for Another Location

Airport:

Trip Planner

Search our weather history database for the weather conditions in past years. The results will help you decide how hot, cold, wet, or windy it might be!

Date:

Astronomy

Apr. 26, 2014 Rise Set
Actual Time 6:08 AM PDT 9:49 PM PDT
Civil Twilight 5:15 AM PDT 10:42 PM PDT
Nautical Twilight 3:57 AM PDT 12:02 AM PDT
Astronomical Twilight 2:30 AM PDT 1:25 AM PDT
Moon 5:24 AM PDT (4/26) 6:47 PM PDT (4/26)
Length of Visible Light 17h 26m
Length of Day
15h 41m
Waning Crescent, 7% of the Moon is Illuminated
Apr 26
Waning Crescent
Apr 28
New
May 6
First Quarter
May 14
Full
May 21
Last Quarter

Hourly Weather History & Observations

Time (PDT) Temp. Windchill Dew Point Humidity Pressure Visibility Wind Dir Wind Speed Gust Speed Precip Events Conditions
12:00 AM 33.8 °F 26.4 °F 19.4 °F 56% 29.71 in 40.0 mi South 9.2 mph - N/A   Clear
1:00 AM 35.6 °F 26.6 °F 17.6 °F 48% 29.71 in 40.0 mi SSE 13.8 mph - N/A   Clear
2:00 AM 32.0 °F 23.6 °F 17.6 °F 55% 29.72 in 40.0 mi South 10.4 mph - N/A   Clear
3:00 AM 30.2 °F 21.3 °F 17.6 °F 60% 29.70 in 40.0 mi SSE 10.4 mph - N/A   Scattered Clouds
4:00 AM 30.2 °F 21.9 °F 17.6 °F 60% 29.70 in 40.0 mi South 9.2 mph - N/A   Mostly Cloudy
5:00 AM 28 °F - 17 °F 52% 29.71 in 37 mi South 4.6 mph - -  
5:00 AM 28.4 °F 24.6 °F 17.6 °F 64% 29.70 in 40.0 mi SSW 3.5 mph - N/A   Mostly Cloudy
6:00 AM 26.6 °F - 15.8 °F 64% 29.70 in 40.0 mi SSW 2.3 mph - N/A   Scattered Clouds
7:00 AM 26.6 °F 22.6 °F 17.6 °F 69% 29.69 in 40.0 mi SSE 3.5 mph - N/A   Scattered Clouds
8:00 AM 28.4 °F 19.7 °F 17.6 °F 64% 29.68 in 40.0 mi SSE 9.2 mph - N/A   Scattered Clouds
9:00 AM 35.6 °F 28.0 °F 15.8 °F 44% 29.66 in 40.0 mi South 10.4 mph - N/A   Partly Cloudy
10:00 AM 39.2 °F 32.0 °F 19.4 °F 45% 29.64 in 40.0 mi SSE 11.5 mph - N/A   Partly Cloudy
11:00 AM 43 °F - 20 °F 27% 29.63 in 37 mi SSE 13.8 mph - -  
11:00 AM 42.8 °F 36.6 °F 21.2 °F 42% 29.63 in 40.0 mi SSE 11.5 mph 20.7 mph N/A   Partly Cloudy
12:00 PM 44.6 °F 39.7 °F 21.2 °F 39% 29.62 in 40.0 mi SSE 9.2 mph - N/A   Partly Cloudy
1:00 PM 46.4 °F 43.5 °F 19.4 °F 34% 29.59 in 40.0 mi East 5.8 mph 19.6 mph N/A   Scattered Clouds
2:00 PM 48.2 °F - 17.6 °F 30% 29.58 in 40.0 mi SSE 8.1 mph - N/A   Scattered Clouds
3:00 PM 48.2 °F - 17.6 °F 30% 29.57 in 40.0 mi SE 4.6 mph - N/A   Mostly Cloudy
4:00 PM 51.8 °F - 17.6 °F 26% 29.55 in 40.0 mi SE 8.1 mph - N/A   Mostly Cloudy
5:00 PM 51 °F - 15 °F 13% 29.55 in 37 mi SSE 11.5 mph - -  
5:00 PM 51.8 °F - 14.0 °F 22% 29.54 in 40.0 mi SSE 10.4 mph 18.4 mph N/A   Mostly Cloudy
6:00 PM 50.0 °F - 17.6 °F 28% 29.54 in 40.0 mi SSE 9.2 mph - N/A   Mostly Cloudy
7:00 PM 50.0 °F - 17.6 °F 28% 29.52 in 40.0 mi SSE 8.1 mph - N/A   Mostly Cloudy
8:00 PM 48.2 °F - 17.6 °F 30% 29.52 in 40.0 mi SSE 6.9 mph - N/A   Mostly Cloudy
9:00 PM 46.4 °F 44.3 °F 21.2 °F 37% 29.51 in 40.0 mi SSE 4.6 mph - N/A   Overcast
10:00 PM 41.0 °F 38.0 °F 23.0 °F 49% 29.52 in 40.0 mi South 4.6 mph - N/A   Overcast
11:00 PM 39 °F - 23 °F 40% 29.52 in 37 mi SSW 4.6 mph - -   Overcast
11:00 PM 39.2 °F 35.9 °F 23.0 °F 52% 29.51 in 40.0 mi SSW 4.6 mph - N/A   Overcast